White Plains, CT

7:00 PM EDT on October 16, 2017 (GMT -0400)
Westchester County

Weather History for KHPN - August, 2013

Change the Weather History Date:

Wednesday, August 14, 2013

  Actual Average Record
Temperature  
Mean Temperature 66 °F -  
Max Temperature 72 °F 79 °F 93 °F (1985)
Min Temperature 59 °F 62 °F 54 °F (1983)
Growing Degree Days 16 (Base 50)    
Moisture  
Dew Point 52 °F    
Average Humidity 63    
Maximum Humidity 97    
Minimum Humidity 46    
Precipitation  
Precipitation 0.00 in - - ()
Sea Level Pressure  
Sea Level Pressure 29.86 in    
Wind  
Wind Speed 10 mph (NW)    
Max Wind Speed 20 mph    
Max Gust Speed 31 mph    
Visibility 10 miles    
Events      
Averages and records for this station are not official NWS values.
T = Trace of Precipitation, MM = Missing Value Source: NWS Daily Summary

Daily Weather History Graph

Daily Weather History Graph

Search for Another Location

Airport or City:

Trip Planner

Search our weather history database for the weather conditions in past years. The results will help you decide how hot, cold, wet, or windy it might be!

Date:

Astronomy

Aug. 14, 2013 Rise Set
Actual Time 6:03 AM EDT 7:54 PM EDT
Civil Twilight 5:34 AM EDT 8:24 PM EDT
Nautical Twilight 4:57 AM EDT 8:59 PM EDT
Astronomical Twilight 4:19 AM EDT 9:38 PM EDT
Moon 2:04 PM EDT (8/14) No Moon Set
Length of Visible Light 14h 50m
Length of Day
13h 50m
First Quarter, 52% of the Moon is Illuminated
Aug 14
First Quarter
Aug 20
Full
Aug 28
Last Quarter
Sep 5
New
Sep 12
First Quarter

Hourly Weather History & Observations

Time (EDT) Temp. Dew Point Humidity Pressure Visibility Wind Dir Wind Speed Gust Speed Precip Events Conditions
12:56 AM 66.9 °F 66.0 °F 97% 29.75 in 5.0 mi WNW 3.5 mph - N/A   Mostly Cloudy
1:56 AM 66.9 °F 62.1 °F 84% 29.74 in 10.0 mi NW 8.1 mph - N/A   Mostly Cloudy
2:56 AM 64.9 °F 59.0 °F 81% 29.75 in 10.0 mi NNW 6.9 mph - N/A   Clear
3:56 AM 63.0 °F 57.0 °F 81% 29.75 in 10.0 mi NW 10.4 mph - N/A   Clear
4:56 AM 61.0 °F 54.0 °F 78% 29.76 in 10.0 mi NW 11.5 mph - N/A   Clear
5:56 AM 59.0 °F 48.0 °F 67% 29.79 in 10.0 mi NW 11.5 mph - N/A   Clear
6:56 AM 59.0 °F 46.0 °F 62% 29.81 in 10.0 mi NW 8.1 mph - N/A   Clear
7:56 AM 60.1 °F 46.9 °F 62% 29.83 in 10.0 mi NW 11.5 mph - N/A   Clear
8:56 AM 62.1 °F 48.0 °F 60% 29.83 in 10.0 mi NW 13.8 mph - N/A   Clear
9:56 AM 64.0 °F 46.9 °F 54% 29.83 in 10.0 mi NNW 16.1 mph 24.2 mph N/A   Clear
10:56 AM 66.0 °F 48.0 °F 52% 29.85 in 10.0 mi WNW 17.3 mph - N/A   Partly Cloudy
11:56 AM 68.0 °F 48.9 °F 50% 29.85 in 10.0 mi WNW 19.6 mph - N/A   Partly Cloudy
12:56 PM 68.0 °F 50.0 °F 52% 29.85 in 10.0 mi WNW 18.4 mph 25.3 mph N/A   Scattered Clouds
1:56 PM 71.1 °F 51.1 °F 49% 29.85 in 10.0 mi WNW 15.0 mph 23.0 mph N/A   Scattered Clouds
2:56 PM 72.0 °F 51.1 °F 48% 29.85 in 10.0 mi NW 16.1 mph 31.1 mph N/A   Scattered Clouds
3:56 PM 72.0 °F 50.0 °F 46% 29.85 in 10.0 mi WNW 19.6 mph 27.6 mph N/A   Scattered Clouds
4:56 PM 72.0 °F 51.1 °F 48% 29.86 in 10.0 mi WNW 13.8 mph 27.6 mph N/A   Scattered Clouds
5:56 PM 71.1 °F 51.1 °F 49% 29.88 in 10.0 mi WNW 12.7 mph 24.2 mph N/A   Scattered Clouds
6:56 PM 69.1 °F 50.0 °F 51% 29.90 in 10.0 mi NW 11.5 mph 21.9 mph N/A   Partly Cloudy
7:56 PM 66.0 °F 51.1 °F 59% 29.93 in 10.0 mi NW 10.4 mph - N/A   Partly Cloudy
8:56 PM 64.0 °F 50.0 °F 60% 29.97 in 10.0 mi NW 9.2 mph - N/A   Clear
9:56 PM 61.0 °F 52.0 °F 72% 30.00 in 10.0 mi Calm Calm - N/A   Clear
10:56 PM 61.0 °F 51.1 °F 70% 30.02 in 10.0 mi WNW 3.5 mph - N/A   Clear
11:56 PM 60.1 °F 51.1 °F 72% 30.04 in 10.0 mi NW 6.9 mph - N/A   Clear